Regional Weather Roundup
Issued by NWS

Home | Current Version | Previous Version | Text Only | Print | Product List | Glossary Off
Versions: 1 2 3 4 5 6 7 8 9 10 11 12 13 14 15 16 17 18 19 20 21 22 23 24 25 26 27 28 29 30 31 32 33 34 35 36 37 38 39 40 41 42 43 44 45 46 47 48 49

000
ASUS45 KBOU 231107
RWRCO

WEATHER ROUNDUP FOR COLORADO
NATIONAL WEATHER SERVICE DENVER/BOULDER CO
500 AM MDT SUN APR 23 2017

NOTE: "FAIR" INDICATES FEW OR NO CLOUDS BELOW 12000 FEET WITH NO
SIGNIFICANT WEATHER AND/OR OBSTRUCTIONS TO VISIBILITY.

COZ001>005-013-030-031-231200-
...NORTHWEST COLORADO...

CITY           SKY/WX    TMP DP  RH WIND       PRES   REMARKS
CRAIG          FAIR      29  24  82 CALM      30.08F
HAYDEN         FAIR      34  21  60 E10       30.09F WCI  26
MEEKER         FAIR      29  25  85 NE6       30.08F WCI  23
MOUNT WERNER   NOT AVBL
STEAMBOAT SPGS FAIR      29  23  79 CALM      30.11F
WALDEN           N/A     30  21  69 SE8       30.13F WCI  23
$$

COZ006>008-011-231200-
...WEST CENTRAL VALLEYS...

CITY           SKY/WX    TMP DP  RH WIND       PRES   REMARKS
GRAND JUNCTION FAIR      43  24  47 SE12      30.03F
MONTROSE       FAIR      35  23  61 SE7       30.11F WCI  29
EAGLE          FAIR      29  23  78 SE3       30.18F
RIFLE          FAIR      34  27  75 CALM      30.10F
DELTA          FAIR      40  24  51 N9        30.09F
NUCLA          FAIR      37  21  52 E10       30.12F
$$

COZ017>023-064>068-231200-
...SOUTHWEST COLORADO...

CITY           SKY/WX    TMP DP  RH WIND       PRES   REMARKS
DURANGO        FAIR      31  19  61 NE5       30.19S WCI  26
CORTEZ         FAIR      32  23  69 VRB3      30.11F
PAGOSA SPRINGS FAIR      31  20  65 CALM      30.23F
TELLURIDE      FAIR      41   8  26 SE6       30.22S
WOLF CREEK PAS FAIR      27   9  46 SW18      30.35F WCI  13
$$

COZ009-010-012-014-032>034-037-058>063-231200-
...CENTRAL COLORADO...

CITY           SKY/WX    TMP DP  RH WIND       PRES   REMARKS
ASPEN          FAIR      27  20  75 SE5       30.14F WCI  22
BUENA VISTA    FAIR      25  22  85 CALM      30.18F
COPPER MTN     FAIR      32   5  32 W6        30.27F WCI  26
BERTHOUD PASS  FAIR      21  10  63 NW21      30.24S WCI   6
COTTONWOOD PAS FAIR      36  19  51 SE5       30.20F
GUNNISON       NOT AVBL
KREMMLING      FAIR      32  28  86 CALM      30.18F
LEADVILLE      FAIR      20  16  84 NE5       30.20F WCI  13
MONARCH PASS   FAIR      27  18  69 SW26      30.37F WCI  11
SALIDA         FAIR      34  28  76 NW10      30.24F WCI  26
SUNLIGHT       FAIR      28  18  64 SW13G20   30.26F WCI  18
WILKERSON PASS MOCLDY    27  19  74 SW13G18   30.23F WCI  16
$$

COZ069>075-231200-
...SAN LUIS VALLEY/SANGRE DE CRISTO MOUNTAINS...

CITY           SKY/WX    TMP DP  RH WIND       PRES   REMARKS
ALAMOSA        FAIR      33  27  78 SE12      30.20F WCI  24
LA VETA PASS   FAIR      28  27  93 SW49G60   30.25F FOG     WCI   9
SAGUACHE       FAIR      27  19  74 NW7       30.24S WCI  19
$$

COZ035-036-038>040-231200-
...NORTHERN COLORADO FRONT RANGE...

CITY           SKY/WX    TMP DP  RH WIND       PRES   REMARKS
DENVER INTL AP FAIR      41  30  65 S12       30.00F
DMNS CITY PARK   N/A     42  30  62 W5G10     30.01S
AURORA         PTCLDY    42  30  61 S20       30.00F
FRONT RANGE AP FAIR      43  32  65 S16       30.01F
ERIE MUNI ARPT FAIR      34  32  92 CALM      30.02F
BOULDER MUN AP FAIR      39  34  81 CALM      30.02F
CENTENNIAL     FAIR      40  30  67 S13       30.01F
BROOMFIELD     FAIR      41  30  65 NW8       30.02F
FORT COLLINS   FAIR      34  33  96 N6        30.03F WCI  29
LONGMONT       FAIR      39  32  75 CALM      30.04F
$$

COZ041-046-047-076>085-087-088-231200-
...PIKES PEAK/PALMER DIVIDE AND SOUTHERN FOOTHILLS...

CITY           SKY/WX    TMP DP  RH WIND       PRES   REMARKS
COLO. SPRINGS  FAIR      36  30  79 E9        30.10F
A. F. ACADEMY  FAIR      32  29  88 CALM      30.09F
SCHRIEVER AFB  MOCLDY    33  30  88 N5        30.11F WCI  29
ELLICOTT       FAIR     N/A N/A N/A SE9       30.09F
FALCON         FAIR      33  28  81 S5        30.12F WCI  29
FORT CARSON    FAIR      35  31  83 NW7       30.09F WCI  29
LIMON          FAIR      36  32  85 S13       30.09F
MONUMENT HILL  FAIR      34  28  80 S15G21    30.08F WCI  24
TRINIDAD       FAIR      39  29  67 W8        30.12F
$$

COZ042>045-048>051-090-091-231200-
...NORTHEAST COLORADO...

CITY           SKY/WX    TMP DP  RH WIND       PRES   REMARKS
GREELEY ARPT   FAIR      36  34  92 NE3       30.03F
AKRON          FAIR      37  31  78 S14       30.06F
BURLINGTON     NOT AVBL
WRAY           NOT AVBL
STERLING       FAIR      34  32  93 SW5       30.06F WCI  30
HOLYOKE        FAIR      37  34  87 S12       30.10F
FORT MORGAN    FAIR      32  31  94 NE6       30.05F WCI  27
$$

COZ086-089-092>099-231200-
...SOUTHEAST COLORADO...

CITY           SKY/WX    TMP DP  RH WIND       PRES   REMARKS
PUEBLO         FAIR      35  33  92 CALM      30.09F
LA JUNTA       FAIR      39  32  76 CALM      30.12F
LAMAR          FAIR      38  32  79 S9        30.13F
SPRINGFIELD      N/A     31  28  89 S9        30.17F WCI  23
$$



USA.gov is the U.S. government's official web portal to all federal, state and local government web resources and services.